This demonstration page uses our WeatherBlox Daily Observations layout. Learn more.

Left ArrowRight Arrow

Hourly Observations for December 15, 2015

Temp ( °F °C ) Dew Point ( °F °C ) Humidity (%) Winds ( mph kmh ) Pressure ( in mb ) Visibility ( mi km ) Precip ( " mm )
12:58 am 00:58 Cloudy 37 2.6 35 1.7 94 94 E 3 6 29.80 1009 10 16 0.00 0.00
1:52 am 01:52 Cloudy 36 2 36 2 100 100 ESE 3 6 29.83 1010 10 16 0.00 0.00
1:58 am 01:58 Cloudy with Mist and Fog 36 2.3 35 1.5 95 95 ESE 2 4 29.83 1010 6 10 0.00 0.00
2:58 am 02:58 Cloudy 36 2.2 35 1.7 97 97 SE 2 4 29.84 1011 10 16 0.00 0.00
3:33 am 03:33 Cloudy 36 2 34 1 93 93 ENE 6 9 29.83 1010 10 16 0.00 0.00
3:58 am 03:58 Cloudy 35 1.6 35 1.4 99 99 ENE 6 9 29.83 1010 10 16 0.00 0.00
4:11 am 04:11 Cloudy 36 2 34 1 93 93 ENE 6 9 29.80 1009 10 16 0.00 0.00
4:16 am 04:16 Cloudy 36 2 34 1 93 93 ENE 6 9 29.80 1009 10 16 0.00 0.00
4:49 am 04:49 Cloudy 36 2 34 1 93 93 NE 6 9 29.77 1008 10 16 0.00 0.00
4:58 am 04:58 Cloudy 35 1.6 35 1.5 99 99 NE 7 11 29.78 1009 10 16 0.00 0.00
5:38 am 05:38 Cloudy 36 2 36 2 100 100 NE 6 9 29.80 1009 10 16 0.00 0.00
5:48 am 05:48 Cloudy with Mist and Fog 36 2 36 2 100 100 NE 6 9 29.80 1009 3 5 0.00 0.00
5:58 am 05:58 Cloudy with Drizzle 36 2 36 2 100 100 ENE 5 7 29.80 1009 2 3 0.00 0.00
6:58 am 06:58 Cloudy with Mist and Fog 36 2 36 2 100 100 E 7 11 29.81 1010 3 5 0.00 0.00
7:23 am 07:23 Cloudy with Mist and Fog 36 2 36 2 100 100 E 8 13 29.80 1009 5 8 0.00 0.00
7:43 am 07:43 Cloudy with Mist and Fog 36 2 36 2 100 100 ENE 8 13 29.80 1009 3 4 0.00 0.00
7:50 am 07:50 Cloudy with Mist and Fog 36 2 34 1 93 93 ENE 10 17 29.77 1008 3 4 0.00 0.00
7:58 am 07:58 Cloudy with Mist and Fog 35 1.6 35 1.5 99 99 E 9 15 29.78 1009 3 4 0.00 0.03
8:23 am 08:23 Cloudy with Mist and Fog 36 2 36 2 100 100 E 9 15 29.77 1008 2 3 0.00 0.00
8:30 am 08:30 Cloudy with Mist and Fog 36 2 36 2 100 100 E 10 17 29.80 1009 3 4 0.00 0.00
8:33 am 08:33 Cloudy with Mist and Fog 36 2 36 2 100 100 E 10 17 29.80 1009 3 5 0.00 0.00
8:45 am 08:45 Cloudy 36 2 36 2 100 100 E 9 15 29.77 1008 10 16 0.00 0.00
8:59 am 08:59 Cloudy 36 2 35 1.8 99 99 E 10 17 29.79 1009 4 6 0.00 0.00
9:35 am 09:35 Cloudy 36 2 34 1 93 93 E 15 24 29.77 1008 6 10 0.00 0.00
9:58 am 09:58 Cloudy 36 2.4 35 1.6 95 95 E 18 30 29.76 1008 7 11 0.00 0.00
10:58 am 10:58 Cloudy 37 2.7 36 2 95 95 E 16 26 29.71 1006 10 16 0.00 0.00
11:06 am 11:06 Cloudy 37 3 36 2 93 93 E 13 20 29.74 1007 10 16 0.00 0.00
11:18 am 11:18 Cloudy 37 3 36 2 93 93 E 20 31 29.74 1007 10 16 0.00 0.00
11:38 am 11:38 Cloudy 37 3 36 2 93 93 E 18 30 29.71 1006 10 16 0.00 0.00
11:58 am 11:58 Cloudy 37 3 37 2.6 97 97 E 18 30 29.67 1005 10 16 0.00 0.00
11:59 am 11:59 Cloudy 37 3 37 3 100 100 E 18 30 29.71 1006 10 16 0.00 0.00
12:58 pm 12:58 Cloudy 39 3.7 38 3.3 97 97 ESE 13 20 29.65 1004 10 16 0.00 0.00
1:58 pm 13:58 Cloudy 39 4.1 39 3.8 98 98 E 17 28 29.59 1002 10 16 0.00 0.00
2:18 pm 14:18 Cloudy 39 4 39 4 100 100 ESE 16 26 29.62 1003 10 16 0.00 0.00
2:58 pm 14:58 Cloudy 40 4.6 39 3.9 95 95 E 22 35 29.54 1000 10 16 0.00 0.00
3:23 pm 15:23 Cloudy 41 5 39 4 93 93 ESE 23 37 29.56 1001 10 16 0.00 0.00
3:58 pm 15:58 Cloudy 42 5.3 40 4.5 95 95 ESE 15 24 29.55 1001 10 16 0.00 0.00
4:42 pm 16:42 Cloudy 43 6 41 5 93 93 ESE 12 19 29.56 1001 10 16 0.00 0.00
4:58 pm 16:58 Cloudy 42 5.6 41 5 96 96 ESE 10 17 29.57 1001 10 16 0.00 0.00
5:09 pm 17:09 Cloudy 43 6 41 5 93 93 ESE 9 15 29.56 1001 10 16 0.00 0.00
5:22 pm 17:22 Cloudy 43 6 41 5 93 93 ESE 9 15 29.56 1001 10 16 0.00 0.00
5:58 pm 17:58 Cloudy 43 6 42 5.3 95 95 E 9 15 29.53 1000 10 16 0.00 0.00
6:19 pm 18:19 Cloudy with Drizzle 43 6 41 5 93 93 E 13 20 29.53 1000 10 16 0.00 0.00
6:37 pm 18:37 Cloudy with Heavy Rain and Nearby Thunderstorms 43 6 43 6 100 100 SSE 8 13 29.53 1000 3 4 0.00 0.00
6:41 pm 18:41 Cloudy with Light Rain and Nearby Thunderstorms 43 6 43 6 100 100 S 6 9 29.53 1000 4 6 0.00 0.00
6:58 pm 18:58 Cloudy with Light Rain and Nearby Thunderstorms 43 6 43 5.9 99 99 ESE 6 9 29.54 1000 7 11 0.08 2.03
7:05 pm 19:05 Cloudy 43 6 43 6 100 100 E 6 9 29.53 1000 7 11 0.00 0.00
7:14 pm 19:14 Mostly Cloudy 43 6 43 6 100 100 E 7 11 29.53 1000 10 16 0.00 0.00
7:27 pm 19:27 Mostly Cloudy 43 6 41 5 93 93 ENE 6 9 29.53 1000 10 16 0.00 0.00
7:58 pm 19:58 Mostly Cloudy 42 5.4 42 5.3 99 99 E 5 7 29.52 1000 7 11 0.00 0.03
8:58 pm 20:58 Partly Cloudy 42 5.3 41 5.2 99 99 E 9 15 29.50 999 10 16 0.00 0.00
9:58 pm 21:58 Mostly Clear 43 5.9 42 5.8 99 99 ESE 10 17 29.47 998 10 16 0.00 0.00
10:58 pm 22:58 Clear 42 5.5 42 5.4 99 99 ESE 10 17 29.44 997 10 16 0.00 0.00
11:58 pm 23:58 Clear 41 4.9 33 0.4 73 73 S 18 30 29.44 997 10 16 0.00 0.00

Powered by AerisWeather